Regional Weather Roundup
Issued by NWS

Home | Current Version | Previous Version | Text Only | Print | Product List | Glossary Off
Versions: 1 2 3 4 5 6 7 8 9 10 11 12 13 14 15 16 17 18 19 20 21 22 23 24 25 26 27

000
ASUS45 KCYS 210210
RWRWY

WYOMING REGIONAL WEATHER ROUNDUP
NATIONAL WEATHER SERVICE CHEYENNE WY
700 PM MST MON NOV 20 2017

NOTE:  "FAIR" INDICATES FEW OR NO CLOUDS BELOW 12,000 FEET
WITH NO SIGNIFICANT WEATHER AND/OR OBSTRUCTIONS TO VISIBILITY.

WYZ001-210300-
YELLOWSTONE NATIONAL PARK

CITY           SKY/WX    TMP DP  RH WIND       PRES   REMARKS
LK YELLOWSTONE   N/A     28  24  85 W9G20     29.97R WCI  19
W YELLOWSTONE  NOT AVBL

$$
WYZ002>013-054>058-071-098>099-210300-
NORTHERN WYOMING

CITY           SKY/WX    TMP DP  RH WIND       PRES   REMARKS
JACKSON        FLURRIES  33  31  92 CALM      30.02R
CODY           FAIR      44  29  55 NW10G25   29.83R
GREYBULL       CLOUDY    40  28  62 SE5       29.82R
WORLAND        FAIR      32  28  85 S5        29.80F WCI  27
SHERIDAN       CLOUDY    47  34  60 N7        29.76R
BUFFALO        CLOUDY    44  27  51 NE12      29.76R
GILLETTE       MOCLDY    45  25  45 N5        29.74R
HULETT         CLOUDY    45  25  45 CALM      29.75S
NEWCASTLE      FAIR      37  21  52 N7        29.74F WCI  32

$$
WYZ014>020-022>026-101>103-210300-
CENTRAL WYOMING

CITY           SKY/WX    TMP DP  RH WIND       PRES   REMARKS
BIG PINEY      FAIR      30  24  78 E7        30.03F WCI  23
PINEDALE       CLOUDY    32  27  80 CALM      30.04F
DUBOIS         LGT SNOW  32  28  86 NW16G24   29.92R WCI  21
LANDER         FAIR      40  23  50 CALM      29.84F
RIVERTON       FAIR      37  25  61 W8        29.85F WCI  31
CASPER         CLOUDY    45  22  40 SW16      29.86R
DOUGLAS        FAIR      50  25  37 W20       29.81S

$$
WYZ021-027>030-104>119-210300-
SOUTHERN WYOMING

CITY           SKY/WX    TMP DP  RH WIND       PRES   REMARKS
EVANSTON       MOCLDY    37  29  72 SW10      30.13R WCI  30
KEMMERER       FAIR      34  30  86 W20G26    30.08R WCI  22
FORT BRIDGER   FAIR      39  30  70 W21G29    30.10R WCI  29
ROCK SPRINGS   FAIR      37  27  67 W35G41    30.06R WCI  24
DIXON          CLOUDY    35  23  62 CALM      30.10S
RAWLINS        FAIR      37  21  52 SW14G23   30.00R WCI  28
SARATOGA       CLOUDY    37  18  44 S13G22    30.03F WCI  29
LARAMIE        CLOUDY    41  12  30 W8        29.97R
CHEYENNE       FAIR      51   8  17 W25G39    29.88R
TORRINGTON     FAIR      56  19  23 W18G31    29.77F
PINE BLUFFS    FAIR      46  14  27 MISG      29.85F

$$




USA.gov is the U.S. government's official web portal to all federal, state and local government web resources and services.